Miscellaneous Local Product
Issued by NWS Hastings, NE

Home | Current Version | Previous Version | Graphics & Text | Print | Product List | Glossary On
Versions: 1 2 3 4 5 6 7 8 9 10 11 12 13 14 15 16 17 18 19 20 21 22 23 24 25 26 27 28 29 30 31 32 33 34 35 36 37 38 39 40 41 42 43 44 45 46 47 48 49 50
168
AXUS43 KGID 080702
MISGRI

GID CWA HOURLY WEATHER ROUNDUP
NATIONAL WEATHER SERVICE HASTINGS NE
100 AM CST MON FEB 08 2016

NOTE: "FAIR" INDICATES FEW OR NO CLOUDS BELOW 12,000 FEET WITH NO
SIGNIFICANT WEATHER AND/OR OBSTRUCTIONS TO VISIBILITY.

...SOUTH CENTRAL NEBRASKA...

CITY           SKY/WX    TMP DP  RH WIND       PRES   REMARKS
GRAND ISLAND   CLEAR     30  17  58 NW18      30.12F WCI  18
HASTINGS       PTCLDY    30  18  60 NW17      30.12F WCI  18
ORD            MOCLDY    33  18  53 NW32G44   30.10F WCI  19
YORK           CLEAR     30  19  64 NW18      30.09S WCI  18
AURORA         CLEAR     30  18  61 NW20      30.10F WCI  17
LEXINGTON      CLEAR     26  15  63 W14       30.21S WCI  15
HOLDREGE       CLEAR     29  16  58 NW20G26   30.18F WCI  16
HEBRON         CLEAR     32  20  60 NW12G18   30.13F WCI  23

...NEBRASKA PANHANDLE...

CITY           SKY/WX    TMP DP  RH WIND       PRES   REMARKS
CHADRON        CLEAR     25  13  60 W18       30.34S WCI  11
ALLIANCE       CLEAR     23  11  60 NW23G29   30.29S WCI   7
SCOTTSBLUFF    CLOUDY    26  13  57 W17       30.38R WCI  13
SIDNEY         CLEAR     24  11  57 NW23      30.34R WCI   9

...WESTERN AND NORTH CENTRAL NEBRASKA...

CITY           SKY/WX    TMP DP  RH WIND       PRES   REMARKS
VALENTINE      CLEAR     29  16  58 NW28G37   30.20S WCI  14
AINSWORTH      CLEAR     31  17  54 NW35G45   30.16F WCI  16
ONEILL         CLOUDY    33  18  55 NW31G41   30.10S WCI  18
BROKEN BOW     PTCLDY    31  17  56 NW26G39   30.16S WCI  17
IMPERIAL       CLEAR     27  13  55 NW22G32   30.29S WCI  13
NORTH PLATTE   CLEAR     28  13  53 NW21      30.24S WCI  15
MCCOOK         CLEAR     25  15  66 NW15      30.27F WCI  13

...EASTERN NEBRASKA...

CITY           SKY/WX    TMP DP  RH WIND       PRES   REMARKS
NORFOLK        CLOUDY    34  19  54 NW33G44   29.99F WCI  20
SO SIOUX CITY  CLOUDY    29  21  72 N23G36    29.97S WCI  15
TEKAMAH        CLOUDY    30  22  72 NW20      29.99F WCI  17
COLUMBUS       CLOUDY    30  14  51 W17       30.05F WCI  18
ALBION         CLOUDY    31  18  57 NW24G33   30.05S WCI  18
OMAHA EPPLEY   CLOUDY    31  22  69 NW25G32   29.98F WCI  17
OFFUTT AFB     CLOUDY    31  22  69 NW16G25   29.99F WCI  20
MILLARD        CLOUDY    32  23  70 NW12      30.01F WCI  23
LINCOLN        CLOUDY    34  20  56 NW16G28   30.06F WCI  24
NEBRASKA CITY  CLOUDY    32  26  77 N18       30.01F WCI  20
BEATRICE       MOCLDY    33  21  62 NW21G30   30.08S WCI  21
FALLS CITY     CLOUDY    35  24  64 NW21G30   30.02F WCI  24

...NORTHERN KANSAS...

CITY           SKY/WX    TMP DP  RH WIND       PRES   REMARKS
GOODLAND       CLEAR     26  12  55 NW22      30.32S WCI  12
HILL CITY      CLEAR     28  17  63 NW12      30.27F WCI  18
NORTON         SUNNY     28  16  59 W18       30.23  WCI  16
PHILLIPSBURG   CLEAR     30  18  59 W18       30.24S WCI  18
SMITH CENTER   CLEAR     30  19  64 W17       30.21S WCI  18
BELOIT         CLEAR     30  21  69 W10       30.19F WCI  21
HAYS           CLEAR     32  12  43 NW22      30.26S WCI  19
RUSSELL        CLEAR     32  19  58 NW20      30.23S WCI  20
CONCORDIA      CLEAR     32  19  58 NW14      30.16S WCI  22
SALINA         CLEAR     35  19  52 W16       30.20S WCI  25
TOPEKA         CLOUDY    38  20  48 NW15G24   30.07R WCI  29



USA.gov is the U.S. government's official web portal to all federal, state and local government web resources and services.